weather.gov     
National Weather Service

Terminal Aerodrome Forecast
NWS Homepage
This page is being discontinued on March 12, 2014.
The same data is available at this site. Please update your bookmarks.
Thank you, and we apologize for the inconvenience.
Please send an email to SR-SRH.Webmaster@noaa.gov with any concerns.


Current Version
Previous Version:    01  02  03  04  05  06  07  08  09  10  11  12  13  14  15  16  17  18  19  20  21  22  23  24  25  26  27  28  29  30  
   31  32  33  34  35  36  37  38  39  40  41  42  43  44  45  
[Printable]
260
FTUS41 KRLX 210800 AAA
TAFPKB
TAF AMD
KPKB 210858Z 2109/2206 25004KT P6SM BKN035 BKN120
     FM211200 27005KT P6SM BKN025
     FM211300 28005KT P6SM BKN035
     FM211800 32007KT P6SM OVC025
     FM212000 31007KT 6SM -TSRA OVC035CB
     FM220000 31007KT 6SM -SHRA OVC025=


U.S. Dept. of Commerce
NOAA National Weather Service
1325 East West Highway
Silver Spring, MD 20910
E-mail: w-nws.webmaster@noaa.gov
Page last modified: May 16, 2007
NATIONAL WEATHER SERVICE: for Safety, for Work, for Fun - FOR LIFE